TimeCST,TemperatureF,Dew PointF,Humidity,Sea Level PressureIn,VisibilityMPH,Wind Direction,Wind SpeedMPH,Gust SpeedMPH,PrecipitationIn,Events,Conditions,WindDirDegrees,DateUTC
12:53 AM,39.0,30.9,73,30.17,10.0,SSW,3.5,-,N/A,,Mostly Cloudy,200,2013-02-12 06:53:00
1:53 AM,39.9,30.9,70,30.17,10.0,Calm,Calm,-,N/A,,Mostly Cloudy,0,2013-02-12 07:53:00
2:53 AM,37.9,33.1,83,30.17,10.0,South,3.5,-,N/A,,Overcast,190,2013-02-12 08:53:00
3:53 AM,37.9,32.0,79,30.17,10.0,Calm,Calm,-,N/A,,Overcast,0,2013-02-12 09:53:00
4:53 AM,37.9,32.0,79,30.17,10.0,Calm,Calm,-,N/A,,Overcast,0,2013-02-12 10:53:00
5:53 AM,37.0,32.0,82,30.18,10.0,Calm,Calm,-,N/A,,Mostly Cloudy,0,2013-02-12 11:53:00
6:53 AM,37.9,30.9,76,30.16,10.0,ENE,4.6,-,N/A,,Mostly Cloudy,60,2013-02-12 12:53:00
7:53 AM,39.9,36.0,86,30.16,10.0,East,3.5,-,N/A,,Partly Cloudy,100,2013-02-12 13:53:00
8:53 AM,45.0,30.9,58,30.14,10.0,East,5.8,-,N/A,,Scattered Clouds,80,2013-02-12 14:53:00
9:53 AM,50.0,28.9,44,30.13,10.0,East,9.2,-,N/A,,Scattered Clouds,80,2013-02-12 15:53:00
10:53 AM,51.1,28.0,41,30.14,10.0,SE,3.5,-,N/A,,Mostly Cloudy,130,2013-02-12 16:53:00
11:53 AM,52.0,27.0,38,30.10,10.0,Variable,6.9,-,N/A,,Overcast,0,2013-02-12 17:53:00
12:53 PM,51.1,27.0,39,30.09,10.0,ESE,3.5,-,N/A,,Overcast,120,2013-02-12 18:53:00
1:53 PM,52.0,27.0,38,30.04,10.0,NE,9.2,-,N/A,,Overcast,50,2013-02-12 19:53:00
2:53 PM,51.1,27.0,39,30.03,10.0,ENE,6.9,-,N/A,,Overcast,70,2013-02-12 20:53:00
3:53 PM,51.1,28.0,41,29.98,10.0,East,6.9,-,N/A,,Overcast,100,2013-02-12 21:53:00
4:53 PM,50.0,28.0,43,29.97,10.0,ENE,4.6,-,N/A,,Overcast,70,2013-02-12 22:53:00
5:53 PM,48.9,30.0,48,29.94,10.0,East,5.8,-,N/A,,Overcast,100,2013-02-12 23:53:00
6:53 PM,48.0,32.0,54,29.96,9.0,SE,3.5,-,0.01,Rain,Light Rain,130,2013-02-13 00:53:00
7:53 PM,45.0,37.0,74,29.94,10.0,South,3.5,-,0.02,Rain,Light Rain,180,2013-02-13 01:53:00
8:53 PM,45.0,37.9,76,29.92,10.0,NNE,5.8,-,0.00,,Overcast,30,2013-02-13 02:53:00
9:53 PM,44.1,37.0,76,29.88,10.0,NNE,5.8,-,N/A,,Overcast,30,2013-02-13 03:53:00
10:53 PM,45.0,36.0,71,29.85,10.0,East,5.8,-,N/A,,Overcast,80,2013-02-13 04:53:00
11:53 PM,44.1,37.0,76,29.83,10.0,ENE,3.5,-,0.00,Rain,Light Rain,70,2013-02-13 05:53:00